Location: Ffm
(50.0000°N, 8.5000°E)
Time: 13:44:50
(UTC+01:00)

N. Korean satellite - Visible Passes

Search period start: 28 October 2020 00:00
Search period end: 07 November 2020 00:00
Orbit: 452 x 505 km, 97.2° (Epoch: 27 October)

Date Brightness Start Highest point End Pass type
(mag) Time Alt. Az. Time Alt. Az. Time Alt. Az.
28 Oct 6.9 05:58:56 10° NNE 06:02:21 66° ESE 06:05:44 10° S visible
28 Oct 10.0 18:13:13 10° SW 18:15:12 14° W 18:17:11 10° NW visible
29 Oct 8.5 05:33:01 10° NNE 05:36:07 31° E 05:39:12 10° SSE visible
29 Oct 9.1 17:45:50 10° SSW 17:48:53 26° W 17:51:54 10° NW visible
30 Oct 9.7 05:07:33 10° NE 05:09:48 16° E 05:12:02 10° SE visible
31 Oct 6.3 06:13:50 10° N 06:17:15 80° WNW 06:20:40 10° SSW visible
01 Nov 7.5 05:47:45 10° NNE 05:51:05 47° E 05:54:23 10° S visible
01 Nov 9.8 18:01:22 10° SW 18:03:53 18° W 18:06:23 10° NW visible
02 Nov 9.0 05:21:59 10° NE 05:24:49 24° E 05:27:38 10° SSE visible
02 Nov 8.5 17:34:20 10° SSW 17:37:35 34° W 17:40:48 10° NNW visible
03 Nov 10.0 04:56:53 10° ENE 04:58:26 13° E 05:00:00 10° ESE visible
03 Nov 6.6 06:28:46 10° N 06:32:07 51° WNW 06:35:26 10° SSW visible
04 Nov 6.6 06:02:33 10° NNE 06:05:58 74° ESE 06:09:24 10° S visible
04 Nov 10.1 18:17:18 10° WSW 18:18:53 13° W 18:20:28 10° WNW visible
05 Nov 8.2 05:36:34 10° NNE 05:39:44 35° E 05:42:55 10° SSE visible
05 Nov 9.3 17:49:39 10° SSW 17:52:31 23° W 17:55:22 10° NW visible
06 Nov 9.5 05:10:57 10° NE 05:13:25 18° E 05:15:53 10° SE visible
06 Nov 7.1 06:43:45 10° N 06:46:54 34° WNW 06:50:03 10° SW visible
06 Nov 7.8 17:22:52 10° S 17:26:13 46° W 17:29:34 10° NNW visible
